Tracking 25723 objects as of 29-Jun-2022
HD Live streaming from Space Station
objects crossing your sky now

ARIANE 5 DEB (SYLDA)

Track ARIANE 5 DEB (SYLDA) now!
10-day predictions


NORAD ID: 29274
Int'l Code: 2006-033C
Perigee: 327.3 km
Apogee: 19,844.4 km
Inclination: 6.0 °
Period: 350.2 minutes
Semi major axis: 16456 km
RCS: 12.1884 m2 (large)
Launch date: August 11, 2006
Source: France (FR)
Launch site: FRENCH GUIANA (FRGUI)

Note: This is SATELLITE DEBRIS
aabbcc
Your satellite tracking list
Your tracking list is empty




NASA's NSSDC Master Catalog

Two Line Element Set (TLE):
1 29274U 06033C   22179.30615353  .00004939  00000-0  18266-2 0  9993
2 29274   5.9938  46.2508 5929796 261.2588  31.1692  4.11228907186454
Source of the keplerian elements: AFSPC